When you browse on this site, cookies collect data to enhance your experience and personalize the content and advertising you see.
Visit our Privacy Policy to learn more. By continuing to use the site, you agree to this use of cookies and data.
  • en Suisse
  • Liste des pays
  • À 7 jours
  • Température de l'eau
  • Carte météo
  • Widgets météo
  • user-avatar
    Se connecter

    Météo par heure à Podvyaze

    Ce jour, 17 Août, Samedi

    Heure Température Précipitation Vent Pression Humidité
    00:00 +11°C° 0 mm 0 m/s 757 mmHg 72%
    01:00 +10°C° 0 mm 0 m/s 757 mmHg 74%
    02:00 +10°C° 0 mm 0 m/s 757 mmHg 76%
    03:00 +10°C° 0 mm 0 m/s 757 mmHg 77%
    04:00 +10°C° 0 mm 0 m/s 757 mmHg 78%
    05:00 +10°C° 0 mm 0 m/s 757 mmHg 80%
    06:00 +12°C° 0 mm 0 m/s 757 mmHg 73%
    07:00 +14°C° 0 mm 0 m/s 757 mmHg 66%
    08:00 +19°C° 0 mm 1 m/s 757 mmHg 60%
    09:00 +20°C° 0 mm 1 m/s 757 mmHg 54%
    10:00 +22°C° 0 mm 1 m/s 757 mmHg 49%
    11:00 +23°C° 0 mm 1 m/s 757 mmHg 44%
    12:00 +24°C° 0 mm 1 m/s 757 mmHg 43%
    13:00 +24°C° 0 mm 1 m/s 757 mmHg 41%
    14:00 +24°C° 0 mm 1 m/s 756 mmHg 40%
    15:00 +24°C° 0 mm 1 m/s 756 mmHg 43%
    16:00 +23°C° 0 mm 1 m/s 756 mmHg 46%
    17:00 +23°C° 0 mm 2 m/s 756 mmHg 50%
    18:00 +21°C° 0 mm 1 m/s 756 mmHg 58%
    19:00 +19°C° 0 mm 1 m/s 756 mmHg 67%
    20:00 +15°C° 0 mm 1 m/s 755 mmHg 75%
    21:00 +14°C° 0 mm 1 m/s 755 mmHg 78%
    22:00 +14°C° 0 mm 1 m/s 755 mmHg 81%
    23:00 +13°C° 0 mm 1 m/s 755 mmHg 84%

    Demain, 18 Août, Dimanche

    Heure Température Précipitation Vent Pression Humidité
    00:00 +12°C° 0 mm 1 m/s 755 mmHg 84%
    01:00 +12°C° 0 mm 1 m/s 755 mmHg 85%
    02:00 +11°C° 0 mm 1 m/s 755 mmHg 86%
    03:00 +11°C° 0 mm 1 m/s 755 mmHg 86%
    04:00 +11°C° 0 mm 1 m/s 755 mmHg 85%
    05:00 +11°C° 0 mm 1 m/s 755 mmHg 85%
    06:00 +13°C° 0 mm 1 m/s 754 mmHg 78%
    07:00 +15°C° 0 mm 1 m/s 754 mmHg 70%
    08:00 +18°C° 0 mm 1 m/s 754 mmHg 62%
    09:00 +20°C° 0 mm 1 m/s 754 mmHg 57%
    10:00 +20°C° 0 mm 0 m/s 754 mmHg 53%
    11:00 +22°C° 0 mm 0 m/s 754 mmHg 48%
    12:00 +25°C° 0 mm 1 m/s 753 mmHg 45%
    13:00 +25°C° 0 mm 1 m/s 753 mmHg 43%
    14:00 +25°C° 0 mm 1 m/s 753 mmHg 40%
    15:00 +25°C° 0 mm 1 m/s 753 mmHg 43%
    16:00 +24°C° 0 mm 1 m/s 753 mmHg 46%
    17:00 +24°C° 0 mm 1 m/s 753 mmHg 49%
    18:00 +21°C° 0 mm 1 m/s 753 mmHg 56%
    19:00 +19°C° 0 mm 1 m/s 753 mmHg 63%
    20:00 +16°C° 0 mm 1 m/s 753 mmHg 70%
    21:00 +16°C° 0 mm 1 m/s 753 mmHg 71%
    22:00 +15°C° 0 mm 1 m/s 753 mmHg 72%
    23:00 +15°C° 0 mm 2 m/s 753 mmHg 73%

    Après-demain, 19 Août, Lundi

    Heure Température Précipitation Vent Pression Humidité
    00:00 +15°C° 0 mm 2 m/s 753 mmHg 77%
    01:00 +15°C° 0 mm 2 m/s 753 mmHg 81%
    02:00 +14°C° 0 mm 2 m/s 753 mmHg 85%
    03:00 +15°C° 0 mm 2 m/s 753 mmHg 87%
    04:00 +14°C° 0 mm 3 m/s 753 mmHg 89%
    05:00 +14°C° 0 mm 3 m/s 752 mmHg 91%
    06:00 +16°C° 0 mm 3 m/s 752 mmHg 87%
    07:00 +17°C° 0 mm 3 m/s 752 mmHg 84%
    08:00 +18°C° 0 mm 3 m/s 753 mmHg 81%
    09:00 +19°C° 0 mm 3 m/s 753 mmHg 78%
    10:00 +20°C° 0 mm 4 m/s 753 mmHg 76%
    11:00 +21°C° 0 mm 4 m/s 753 mmHg 73%
    12:00 +22°C° 0 mm 4 m/s 753 mmHg 74%
    13:00 +22°C° 0 mm 3 m/s 753 mmHg 75%
    14:00 +22°C° 0 mm 3 m/s 754 mmHg 76%
    15:00 +22°C° 0 mm 3 m/s 754 mmHg 76%
    16:00 +24°C° 0 mm 3 m/s 754 mmHg 76%
    17:00 +24°C° 0 mm 3 m/s 754 mmHg 76%
    18:00 +23°C° 0.3 mm 2 m/s 755 mmHg 82%
    19:00 +20°C° 0.3 mm 2 m/s 755 mmHg 89%
    20:00 +19°C° 0.3 mm 2 m/s 755 mmHg 96%
    21:00 +19°C° 0.1 mm 2 m/s 755 mmHg 96%
    22:00 +19°C° 0.1 mm 1 m/s 756 mmHg 96%
    23:00 +18°C° 0.1 mm 1 m/s 756 mmHg 96%

    20 Août, Mardi

    Heure Température Précipitation Vent Pression Humidité
    00:00 +18°C° 0 mm 1 m/s 757 mmHg 96%
    01:00 +16°C° 0 mm 1 m/s 757 mmHg 95%
    02:00 +15°C° 0 mm 1 m/s 757 mmHg 95%
    03:00 +14°C° 0 mm 0 m/s 757 mmHg 95%
    04:00 +15°C° 0 mm 0 m/s 758 mmHg 94%
    05:00 +15°C° 0 mm 0 m/s 758 mmHg 94%
    06:00 +16°C° 0 mm 0 m/s 758 mmHg 91%
    07:00 +17°C° 0 mm 0 m/s 758 mmHg 89%
    08:00 +20°C° 0 mm 1 m/s 758 mmHg 87%
    09:00 +21°C° 0 mm 1 m/s 759 mmHg 79%
    10:00 +23°C° 0 mm 1 m/s 759 mmHg 72%
    11:00 +24°C° 0 mm 1 m/s 759 mmHg 65%
    12:00 +25°C° 0.1 mm 1 m/s 759 mmHg 62%
    13:00 +25°C° 0.1 mm 1 m/s 759 mmHg 58%
    14:00 +26°C° 0.1 mm 1 m/s 758 mmHg 55%
    15:00 +25°C° 0 mm 1 m/s 758 mmHg 58%
    16:00 +25°C° 0 mm 1 m/s 758 mmHg 61%
    17:00 +24°C° 0 mm 1 m/s 758 mmHg 64%
    18:00 +23°C° 0 mm 1 m/s 759 mmHg 69%
    19:00 +21°C° 0 mm 1 m/s 759 mmHg 73%
    20:00 +19°C° 0 mm 1 m/s 759 mmHg 78%
    21:00 +18°C° 0 mm 1 m/s 759 mmHg 79%
    22:00 +16°C° 0 mm 1 m/s 759 mmHg 80%
    23:00 +15°C° 0 mm 1 m/s 760 mmHg 81%

    21 Août, Mercredi

    Heure Température Précipitation Vent Pression Humidité
    00:00 +15°C° 0 mm 1 m/s 760 mmHg 81%
    01:00 +14°C° 0 mm 1 m/s 760 mmHg 82%
    02:00 +14°C° 0 mm 1 m/s 760 mmHg 83%
    03:00 +14°C° 0 mm 1 m/s 760 mmHg 84%
    04:00 +13°C° 0 mm 1 m/s 760 mmHg 86%
    05:00 +13°C° 0 mm 1 m/s 760 mmHg 87%
    06:00 +15°C° 0 mm 1 m/s 760 mmHg 82%
    07:00 +18°C° 0 mm 1 m/s 760 mmHg 76%
    08:00 +19°C° 0 mm 1 m/s 760 mmHg 71%
    09:00 +19°C° 0 mm 2 m/s 760 mmHg 69%
    10:00 +20°C° 0 mm 2 m/s 760 mmHg 67%
    11:00 +21°C° 0 mm 2 m/s 759 mmHg 65%
    12:00 +20°C° 0.2 mm 2 m/s 759 mmHg 72%
    13:00 +19°C° 0.2 mm 3 m/s 758 mmHg 78%
    14:00 +18°C° 0.2 mm 4 m/s 757 mmHg 84%
    15:00 +17°C° 2.6 mm 4 m/s 757 mmHg 88%
    16:00 +15°C° 2.6 mm 5 m/s 756 mmHg 92%
    17:00 +14°C° 2.6 mm 5 m/s 755 mmHg 96%
    18:00 +13°C° 2.6 mm 5 m/s 755 mmHg 96%
    19:00 +13°C° 2.6 mm 5 m/s 755 mmHg 96%
    20:00 +13°C° 2.6 mm 5 m/s 755 mmHg 97%
    21:00 +13°C° 1.6 mm 4 m/s 755 mmHg 97%
    22:00 +13°C° 1.6 mm 4 m/s 756 mmHg 97%
    23:00 +13°C° 1.6 mm 3 m/s 756 mmHg 97%

    22 Août, Jeudi

    Heure Température Précipitation Vent Pression Humidité
    00:00 +13°C° 0.2 mm 3 m/s 757 mmHg 97%
    01:00 +13°C° 0.2 mm 3 m/s 757 mmHg 97%
    02:00 +13°C° 0.2 mm 3 m/s 758 mmHg 97%
    03:00 +12°C° 0 mm 3 m/s 758 mmHg 97%
    04:00 +12°C° 0 mm 3 m/s 758 mmHg 97%
    05:00 +12°C° 0 mm 2 m/s 759 mmHg 97%
    06:00 +13°C° 0 mm 2 m/s 759 mmHg 95%
    07:00 +14°C° 0 mm 2 m/s 759 mmHg 93%
    08:00 +14°C° 0 mm 3 m/s 760 mmHg 90%
    09:00 +17°C° 0 mm 3 m/s 760 mmHg 80%
    10:00 +18°C° 0 mm 3 m/s 760 mmHg 70%
    11:00 +20°C° 0 mm 4 m/s 760 mmHg 60%
    12:00 +21°C° 0 mm 4 m/s 760 mmHg 57%
    13:00 +21°C° 0 mm 4 m/s 760 mmHg 54%
    14:00 +22°C° 0 mm 4 m/s 760 mmHg 51%
    15:00 +21°C° 0 mm 4 m/s 760 mmHg 55%
    16:00 +21°C° 0 mm 3 m/s 760 mmHg 59%
    17:00 +20°C° 0 mm 3 m/s 760 mmHg 63%
    18:00 +18°C° 0 mm 3 m/s 761 mmHg 68%
    19:00 +17°C° 0 mm 2 m/s 761 mmHg 73%
    20:00 +15°C° 0 mm 2 m/s 761 mmHg 79%
    21:00 +14°C° 0 mm 2 m/s 761 mmHg 82%
    22:00 +13°C° 0 mm 2 m/s 761 mmHg 85%
    23:00 +12°C° 0 mm 1 m/s 762 mmHg 88%
    Voir plus